Location: Indian Hills
(32.9760°N, 85.9450°W)
Time: 00:17:11
(UTC+00:00)

Daily predictions for brighter satellites

Satellite Brightness Start Highest point End
(mag) Time Altitude Azimuth Time Altitude Azimuth Time Altitude Azimuth
Aureole 1 Rocket 3.8 00:02:08 10° SW 00:04:53 32° WNW 00:07:06 14° N
CZ-4 R/B 4.3 00:01:10 10° SSE 00:05:18 74° ENE 00:09:28 10° N
Cosmos 2221 Rocket 4.1 00:02:19 10° SSE 00:06:26 37° E 00:06:32 37° E
Cosmos 1140 Rocket 3.6 00:01:46 10° S 00:06:41 49° ESE 00:08:40 32° NE
Cosmos 2026 Rocket 3.9 00:02:41 10° S 00:08:46 88° W 00:14:50 10° N
STARLINK-43 3.4 00:11:34 10° SSW 00:15:13 58° SE 00:15:14 58° SE
FengYun 1-2 T 4.2 00:09:46 10° S 00:15:14 81° WSW 00:20:45 10° NNW
Cosmos 1023 Rocket 4.3 00:13:05 10° S 00:18:06 68° ESE 00:20:01 37° NNE
Cosmos 1900 4.1 00:13:28 10° NNW 00:18:21 76° ENE 00:22:56 11° SSE
Geosat 4.3 00:18:13 41° E 00:18:33 41° ESE 00:23:15 10° S
Cosmos 1782 Rocket 3.3 00:15:40 10° N 00:20:01 75° E 00:24:20 10° S
NOAA 11 4.2 00:16:46 10° SSE 00:22:03 55° ENE 00:27:23 10° N
Lacrosse 5 3.6 00:19:36 10° SSE 00:21:52 18° SE 00:21:52 18° SE
Cosmos 1417 Rocket 4.4 00:24:33 10° N 00:30:33 56° E 00:36:34 10° SSE
Cosmos 1655 Rocket 3.9 00:26:33 10° S 00:32:49 67° E 00:36:03 30° NNE
Cosmos 2278 Rocket 3.6 00:28:07 10° NW 00:33:20 39° WSW 00:38:30 10° S
CZ-3B R/B 3.9 00:28:56 10° SSW 00:34:20 24° SE 00:36:05 23° SE
SL-16 R/B 3.1 00:35:32 10° SW 00:40:56 46° WNW 00:44:45 19° N
Meteor 1-19 Rocket 4.1 00:36:27 10° S 00:42:02 85° W 00:44:11 39° N
USA 267 4.5 00:38:34 10° SSE 00:44:35 39° SW 00:50:39 10° WNW
ADEOS Rocket 4.0 00:48:12 27° SSE 00:48:12 27° SSE 00:50:53 10° S
Cosmos 1241 Rocket 4.3 00:40:58 10° SSW 00:47:23 83° ESE 00:48:28 63° NE
Cosmos 1603 4.5 00:41:55 10° S 00:45:36 37° SSE 00:45:36 37° SSE
OAO 3 Rocket 3.6 00:45:26 10° W 00:49:23 56° NW 00:49:23 56° NW
Meteor 2-4 Rocket 3.8 00:47:01 10° S 00:52:18 68° SE 00:52:18 68° SE
Cosmos 676 Rocket 4.2 00:52:53 10° SSW 00:58:00 67° WNW 00:58:02 67° WNW
Atlas Centaur 2 4.2 00:54:35 10° W 01:01:48 35° SSW 01:06:41 20° SSE
CZ-4C R/B 3.9 00:59:36 10° S 01:00:43 17° S 01:00:43 17° S
YAOGAN 1 4.4 01:02:21 10° SSW 01:06:06 29° W 01:09:53 10° NW
CZ-4 R/B 4.0 01:03:20 10° SW 01:06:10 19° W 01:08:59 10° NW
CZ-3B R/B 4.3 02:21:58 10° WSW 02:25:00 27° SW 02:25:00 27° SW
FALCON 9 R/B 4.2 08:57:37 37° E 08:57:37 37° E 09:05:55 10° ENE
SL-16 R/B 3.4 09:40:15 37° E 09:40:15 37° E 09:44:54 10° SE
Cosmos 2237 Rocket 4.5 09:56:16 12° S 09:56:16 12° S 09:56:43 10° S
Meteor 1-27 Rocket 4.5 10:01:37 31° NNE 10:04:14 53° E 10:09:57 10° SSE
CZ-4C R/B 3.5 10:15:53 27° NNW 10:20:18 58° ENE 10:28:30 10° SE
Cosmos 2263 Rocket 3.1 10:15:19 10° S 10:20:37 47° ESE 10:25:56 10° NNE
Cosmos 614 Rocket 4.4 10:21:47 44° NNE 10:23:08 59° ENE 10:28:10 10° SSE
STARLINK-39 4.5 10:28:05 44° SE 10:28:05 44° SE 10:30:54 10° SE
STARLINK 4.4 10:29:43 45° SSE 10:29:43 45° SSE 10:32:34 10° SE
STARLINK-42 4.4 10:31:28 44° SSE 10:31:28 44° SSE 10:34:19 10° SE
STARLINK-21 4.3 10:32:54 47° SSE 10:32:54 47° SSE 10:35:52 10° SE
STARLINK-45 4.4 10:34:50 42° SSE 10:34:50 42° SSE 10:37:40 10° SSE
Cosmos 1862 Rocket 3.6 10:35:07 67° SSW 10:35:07 67° SSW 10:39:02 10° S
Okean O Rocket 3.9 10:30:59 10° NE 10:34:35 24° E 10:38:10 10° SSE
Cosmos 2227 4.1 10:28:53 10° SSW 10:34:36 90° S 10:40:24 10° NNE
STARLINK-75 4.5 10:36:36 39° S 10:36:36 39° S 10:39:23 10° SSE
STARLINK-76 4.1 10:37:41 49° S 10:37:41 49° S 10:40:48 10° SSE
Cosmos 407 Rocket 3.6 10:34:45 36° N 10:37:00 79° ENE 10:42:20 10° SSE
Cosmos 1140 Rocket 4.2 10:33:50 19° N 10:37:24 51° ENE 10:42:28 10° SSE
STARLINK 4.1 10:39:15 49° S 10:39:15 49° S 10:42:24 10° SSE
STARLINK-32 4.1 10:40:53 49° S 10:40:53 49° S 10:44:05 10° SSE
Cosmos 2242 Rocket 3.9 10:37:48 27° N 10:40:14 68° E 10:44:41 10° SSE
STARLINK-40 4.0 10:42:27 49° S 10:42:27 49° S 10:45:42 10° SSE
STARLINK-44 4.0 10:44:04 48° SSW 10:44:04 48° SSW 10:47:21 10° SSE
ALOS 3.2 10:40:22 10° NNE 10:44:54 49° E 10:49:24 10° S
STARLINK-37 4.1 10:45:51 44° SSW 10:45:51 44° SSW 10:49:06 10° SSE
STARLINK-41 4.0 10:46:46 49° SSW 10:46:46 49° SSW 10:50:15 10° SSE
Nadezhda 4 Rocket 3.8 10:40:22 10° N 10:46:35 85° W 10:52:43 10° S
STARLINK-36 4.0 10:47:12 46° SSW 10:47:12 46° SSW 10:50:34 10° SSE
STARLINK-64 4.0 10:48:28 47° SSW 10:48:28 47° SSW 10:51:58 10° SSE
Lacrosse 5 2.4 10:49:21 38° SW 10:49:21 38° SW 10:53:53 10° S
Aureole 1 Rocket 4.4 10:49:24 39° W 10:50:16 41° WSW 10:57:06 10° S
STARLINK-35 4.1 10:51:58 43° SW 10:51:58 43° SW 10:55:26 10° SSE
SJ-12 4.1 10:47:45 10° NNE 10:51:53 73° ESE 10:55:56 10° S
STARLINK-51 4.1 10:53:35 41° SW 10:53:35 41° SW 10:57:04 10° SSE
FENGYUN 3A 4.2 10:48:06 10° NNE 10:53:27 60° ESE 10:58:43 10° S
GEOS 3 Rocket 3.9 10:49:00 10° SE 10:53:59 62° NE 10:57:27 20° NNW
Longmarch 3A Rocket 3.5 10:54:27 12° S 10:54:27 12° S 10:55:10 10° SSE
STARLINK-30 4.1 10:55:13 40° SW 10:55:13 40° SW 10:58:44 10° SSE
CZ-4B R/B 4.3 10:50:31 10° NNE 10:55:54 47° E 11:01:20 10° S
STARLINK-33 4.2 10:56:49 38° SW 10:56:49 38° SW 11:00:21 10° SSE
STARLINK 4.0 10:57:46 43° SW 10:57:51 43° SW 11:01:41 10° SSE
STARLINK-50 4.2 10:58:22 37° SW 10:58:22 37° SW 11:01:56 10° SSE
Meteor 1-25 Rocket 4.1 10:54:02 10° S 10:59:36 89° W 11:05:16 10° N
USA 234 4.4 10:56:25 10° NNE 11:01:18 23° NNW 11:02:02 22° NW
STARLINK-56 4.3 11:01:37 34° SW 11:01:37 34° SW 11:05:14 10° SSE
Starlink (trailer) 4.4 11:03:09 33° SW 11:03:10 33° SW 11:06:47 10° SSE
STARLINK-38 4.4 11:04:45 31° SW 11:04:50 31° SW 11:08:24 10° S
STARLINK-65 4.5 11:06:19 30° WSW 11:06:27 30° SW 11:09:58 10° S
SKYMED 2 3.5 11:02:32 10° SSE 11:06:52 85° ENE 11:11:13 10° N
Cosmos 2026 Rocket 4.5 11:02:34 10° N 11:08:43 62° E 11:14:53 10° SSE
Cosmos 1943 4.2 11:04:13 10° N 11:09:35 45° ENE 11:14:55 10° SE
PAYLOAD B 4.2 11:04:46 10° NNE 11:10:19 89° ESE 11:15:52 10° SSW
BREEZE-M DEB (TANK) 3.0 11:13:23 33° WSW 11:13:44 34° SW 11:16:49 10° SSE
METEOR-M 4.0 11:11:36 10° N 11:16:56 76° WNW 11:22:16 10° SSW
Cosmos 1634 Rocket 3.9 11:12:59 10° SSW 11:19:11 72° W 11:25:22 10° N
Cosmos 1340 2.7 11:17:55 10° S 11:21:39 77° E 11:25:24 10° N
Okean 1 3.7 11:19:06 10° N 11:23:02 63° E 11:26:58 10° SSE
Timation 1 Rocket 4.3 11:17:12 10° SW 11:23:02 59° WNW 11:28:56 10° NNE
SL-16 R/B 3.3 11:22:12 22° W 11:23:27 23° W 11:27:49 10° SSW
Geosat 4.0 11:22:59 10° SSE 11:27:59 70° WSW 11:33:00 10° NNW
Cosmos 1602 3.7 11:26:08 10° SSW 11:29:54 58° W 11:33:40 10° N
Cosmos 1603 3.7 11:24:34 10° NNW 11:30:20 85° WSW 11:36:01 10° SSE
Cosmos 676 Rocket 4.0 11:25:20 10° NNW 11:30:32 63° WSW 11:35:45 10° S
Okean 1-7 3.0 11:26:28 10° NNW 11:30:50 65° W 11:35:09 10° S
Cosmos 1461 2.9 11:29:28 14° NNW 11:33:12 79° WSW 11:37:38 10° SSE
Cosmos 1627 Rocket 4.5 11:29:07 10° N 11:35:21 73° W 11:41:39 10° S
Helios 1A Rocket 2.9 11:35:12 10° N 11:39:09 55° WNW 11:43:04 10° SSW
Cosmos 1954 Rocket 4.2 11:35:23 10° NNW 11:40:31 53° WSW 11:45:39 10° S
BREEZE-M DEB (TANK) 3.0 11:40:10 10° SW 11:42:26 63° SE 11:45:36 10° NE
Cosmos 1484 Rocket 4.4 11:43:43 10° NW 11:45:54 15° WNW 11:48:04 10° WSW
FALCON 9 DEB 4.2 11:47:09 10° NNW 11:49:05 22° NE 11:51:01 10° E
Cosmos 2084 Rocket 3.9 11:46:14 11° NW 11:50:17 46° WSW 11:54:28 10° S
USA 238 DEB 4.3 11:45:39 10° SSW 11:52:08 61° ESE 11:58:48 10° NE
USA 238 4.3 11:45:47 10° SSW 11:52:14 60° ESE 11:58:54 10° NE
Cosmos 1092 Rocket 4.5 11:47:12 10° NNW 11:52:44 36° W 11:58:14 10° SSW
COSMO-SKYMED 1 3.7 11:51:24 10° SSW 11:54:56 24° W 11:58:30 10° NW
